Weather History for St. Joseph, MO

Change the Weather History Date:

Tuesday, May 14, 2013

  Actual Average Record
Temperature  
Mean Temperature 75 °F 64 °F  
Max Temperature 96 °F 75 °F 96 °F (2013)
Min Temperature 54 °F 53 °F 38 °F (1980)
Degree Days  
Heating Degree Days 0 4  
Month to date heating degree days 151 75  
Since 1 July heating degree days 5584 5413  
Cooling Degree Days 10 3  
Month to date cooling degree days 10 22  
Year to date cooling degree days 26 43  
Growing Degree Days 26 (Base 50)    
Moisture  
Dew Point 49 °F    
Average Humidity 52    
Maximum Humidity 86    
Minimum Humidity 17    
Precipitation  
Precipitation 0.00 in 0.16 in 1.55 in (1902)
Month to date precipitation 1.41 2.52  
Year to date precipitation 7.92 10.05  
Sea Level Pressure  
Sea Level Pressure 29.79 in    
Wind  
Wind Speed 13 mph (SSW)    
Max Wind Speed 30 mph    
Max Gust Speed 40 mph    
Visibility 10 miles    
Events      
T = Trace of Precipitation, MM = Missing Value Source: NWS Daily Summary

Daily Weather History Graph

Daily Weather History Graph

Search for Another Location

Airport:

Trip Planner

Search our weather history database for the weather conditions in past years. The results will help you decide how hot, cold, wet, or windy it might be!

Date:

Astronomy

May. 14, 2013 Rise Set
Actual Time 6:05 AM CDT 8:26 PM CDT
Civil Twilight 5:35 AM CDT 8:57 PM CDT
Nautical Twilight 4:57 AM CDT 9:35 PM CDT
Astronomical Twilight 4:16 AM CDT 10:16 PM CDT
Moon 9:46 AM CDT (5/14) No Moon Set
Length of Visible Light 15h 22m
Length of Day
14h 21m
Waxing Crescent, 19% of the Moon is Illuminated
May 14
Waxing Crescent
May 17
First Quarter
May 24
Full
May 31
Last Quarter
Jun 8
New

Hourly Weather History & Observations

Time (CDT) Temp. Dew Point Humidity Pressure Visibility Wind Dir Wind Speed Gust Speed Precip Events Conditions
12:53 AM 66.9 °F 55.0 °F 66% 29.88 in 10.0 mi SSW 9.2 mph - N/A   Clear
1:53 AM 66.0 °F 55.0 °F 68% 29.86 in 10.0 mi SSW 8.1 mph - N/A   Clear
2:53 AM 64.9 °F 55.0 °F 70% 29.84 in 10.0 mi SSW 6.9 mph - N/A   Clear
3:53 AM 62.1 °F 53.1 °F 72% 29.83 in 10.0 mi Calm Calm - N/A   Clear
4:53 AM 61.0 °F 53.1 °F 75% 29.82 in 10.0 mi Calm Calm - N/A   Clear
5:53 AM 55.9 °F 51.1 °F 84% 29.82 in 10.0 mi Calm Calm - N/A   Clear
6:53 AM 57.9 °F 51.1 °F 78% 29.83 in 10.0 mi SSE 4.6 mph - N/A   Clear
7:53 AM 68.0 °F 54.0 °F 61% 29.83 in 10.0 mi South 3.5 mph - N/A   Clear
8:53 AM 73.9 °F 52.0 °F 46% 29.82 in 10.0 mi SW 10.4 mph - N/A   Clear
9:53 AM 80.1 °F 50.0 °F 35% 29.82 in 10.0 mi SW 9.2 mph - N/A   Clear
10:53 AM 82.9 °F 48.9 °F 31% 29.81 in 10.0 mi SSW 13.8 mph - N/A   Clear
11:53 AM 87.1 °F 48.0 °F 26% 29.81 in 10.0 mi SW 15.0 mph - N/A   Clear
12:53 PM 90.0 °F 48.9 °F 24% 29.78 in 10.0 mi South 17.3 mph 25.3 mph N/A   Clear
1:53 PM 91.9 °F 50.0 °F 24% 29.76 in 10.0 mi SSW 18.4 mph 25.3 mph N/A   Clear
2:53 PM 93.0 °F 48.9 °F 22% 29.75 in 10.0 mi SSW 20.7 mph 27.6 mph N/A   Clear
3:53 PM 96.1 °F 45.0 °F 17% 29.73 in 10.0 mi SW 27.6 mph 32.2 mph N/A   Clear
4:53 PM 96.1 °F 46.0 °F 18% 29.72 in 10.0 mi SW 27.6 mph 34.5 mph N/A   Clear
5:53 PM 93.9 °F 44.1 °F 18% 29.71 in 10.0 mi SSW 24.2 mph 36.8 mph N/A   Clear
6:53 PM 91.0 °F 43.0 °F 19% 29.71 in 10.0 mi SW 24.2 mph 32.2 mph N/A   Clear
7:53 PM 88.0 °F 45.0 °F 22% 29.73 in 10.0 mi SW 21.9 mph 29.9 mph N/A   Clear
8:53 PM 82.0 °F 46.0 °F 28% 29.74 in 10.0 mi SSW 16.1 mph - N/A   Clear
9:53 PM 80.1 °F 45.0 °F 29% 29.76 in 10.0 mi SSW 13.8 mph - N/A   Clear
10:53 PM 77.0 °F 46.0 °F 33% 29.77 in 10.0 mi SSW 12.7 mph - N/A   Clear
11:53 PM 75.9 °F 48.9 °F 38% 29.78 in 10.0 mi SSW 11.5 mph - N/A   Clear